• Processing (Info)

  • MPEC 2012-W08 : 2012 VJ82

    The following Minor Planet Electronic Circular may be linked-to from your own Web pages, but must not otherwise be redistributed electronically.

    A form allowing access to any MPEC is at the bottom of this page.


    Read MPEC 2012-W07 Read MPEC 2012-W09


    M.P.E.C. 2012-W08                                Issued 2012 Nov. 17, 02:43 UT
    
         The Minor Planet Electronic Circulars contain information on unusual
             minor planets and routine data on comets.  They are published
       on behalf of Commission 20 of the International Astronomical Union by the
              Minor Planet Center, Smithsonian Astrophysical Observatory,
                              Cambridge, MA 02138, U.S.A.
    
                 Prepared using the Tamkin Foundation Computer Network
    
                                  MPC@CFA.HARVARD.EDU
                URL https://www.minorplanetcenter.net/    ISSN 1523-6714
    
                                       2012 VJ82
    
    Observations:
         K12V82J* C2012 11 14.07773 02 48 21.93 +39 44 04.1          19.6 RoEW008926
         K12V82J  C2012 11 14.09402 02 48 19.36 +39 43 42.1          19.3 RoEW008926
         K12V82J  C2012 11 14.11030 02 48 16.71 +39 43 18.9          19.2 RoEW008926
         K12V82J  C2012 11 14.23499 02 47 56.18 +39 40 24.1          19.5 RoEW008G48
         K12V82J  C2012 11 14.23756 02 47 55.76 +39 40 20.4          20.0 RoEW008G48
         K12V82J  C2012 11 14.24013 02 47 55.35 +39 40 16.3          19.7 RoEW008G48
         K12V82J  C2012 11 14.33110 02 47 40.25 +39 38 04.7          18.9 RcEW008854
         K12V82J  C2012 11 14.33833 02 47 38.97 +39 37 52.9          19.3 RcEW008854
         K12V82J  C2012 11 14.35999 02 47 35.39 +39 37 21.1          19.1 RcEW008854
         K12V82J KC2012 11 14.81942 02 46 24.25 +39 25 54.0          19.2 RuEW008113
         K12V82J KC2012 11 14.82299 02 46 23.71 +39 25 47.9          18.7 RuEW008113
         K12V82J KC2012 11 14.82656 02 46 23.10 +39 25 42.9          18.8 RuEW008113
         K12V82J KC2012 11 14.83014 02 46 22.52 +39 25 37.5          18.8 RuEW008113
         K12V82J KC2012 11 14.83370 02 46 21.88 +39 25 33.1          19.2 RuEW008113
         K12V82J KC2012 11 14.85880 02 46 17.90 +39 24 55.0          19.0 VuEW008B86
         K12V82J KC2012 11 14.86252 02 46 17.28 +39 24 49.8          19.0 VuEW008B86
         K12V82J KC2012 11 14.86998 02 46 16.06 +39 24 38.4          18.8 VuEW008B86
         K12V82J KC2012 11 14.87370 02 46 15.45 +39 24 32.8          19.3 VuEW008B86
         K12V82J KC2012 11 14.87743 02 46 14.84 +39 24 27.6          18.8 VuEW008B86
         K12V82J KC2012 11 14.88116 02 46 14.21 +39 24 22.0          18.7 VuEW008B86
         K12V82J KC2012 11 14.88488 02 46 13.61 +39 24 16.6          19.1 VuEW008B86
         K12V82J KC2012 11 14.89356 02 46 12.17 +39 24 03.5          19.2 VuEW008B86
         K12V82J KC2012 11 14.89728 02 46 11.56 +39 23 57.7          19.0 VuEW008B86
         K12V82J KC2012 11 14.95850 02 46 01.33 +39 22 25.5          19.3 VqEW008C43
         K12V82J KC2012 11 14.96887 02 45 59.68 +39 22 09.8          19.3 VqEW008C43
         K12V82J KC2012 11 14.97704 02 45 58.45 +39 21 59.9          19.0 VvEW008I93
         K12V82J KC2012 11 14.98034 02 45 58.04 +39 21 52.6                uEW008J95
         K12V82J KC2012 11 14.98514 02 45 57.21 +39 21 45.3                uEW008J95
         K12V82J KC2012 11 14.98996 02 45 56.45 +39 21 38.1          18.8 RuEW008J95
         K12V82J KC2012 11 15.02298 02 45 50.86 +39 20 50.1          18.8 VvEW008I93
         K12V82J KC2012 11 15.03699 02 45 48.56 +39 20 28.7          19.0 VvEW008I93
         K12V82J KC2012 11 15.10019102 45 39.94 +39 18 52.4          19.4 VrEW008H21
         K12V82J KC2012 11 15.10438502 45 39.26 +39 18 46.4          19.5 VrEW008H21
         K12V82J  C2012 11 15.55707 02 44 26.90 +39 07 10.8          19.8 RoEW008300
         K12V82J  C2012 11 15.55938 02 44 26.52 +39 07 07.1          19.8 RoEW008300
         K12V82J  C2012 11 15.56402 02 44 25.72 +39 06 59.7          19.9 RoEW008300
         K12V82J  C2012 11 15.56865 02 44 24.97 +39 06 52.9          19.8 RoEW008300
         K12V82J KC2012 11 16.07804202 43 04.67 +38 53 20.9          18.9 VrEW008H21
         K12V82J KC2012 11 16.08264102 43 03.91 +38 53 13.7          18.9 VrEW008H21
         K12V82J KC2012 11 16.08779902 43 03.05 +38 53 05.5          18.9 VrEW008H21
         K12V82J KC2012 11 16.24032 02 42 37.72 +38 49 01.7          19.4 RqEW008H36
         K12V82J KC2012 11 16.24449 02 42 37.02 +38 48 54.9          19.7 RqEW008H36
         K12V82J KC2012 11 16.25276 02 42 35.63 +38 48 41.9          19.5 RqEW008H36
         K12V82J KC2012 11 16.85881 02 40 59.65 +38 31 56.7          18.9 RuEW008113
         K12V82J KC2012 11 16.86737 02 40 58.16 +38 31 43.3          19.9 RuEW008113
         K12V82J KC2012 11 17.01461 02 40 33.67 +38 27 36.2          19.1 VcEW008595
         K12V82J KC2012 11 17.02503 02 40 31.91 +38 27 18.7                cEW008595
         K12V82J KC2012 11 17.03547 02 40 30.13 +38 27 00.8          19.2 VcEW008595
    
    Observer details:
    113 Volkssternwarte Drebach, Schoenbrunn.  Observer G. Lehmann.  0.5-m f/4.6
        reflector + CCD.
    300 Bisei Spaceguard Center--BATTeRS.  Observers A. Asami, N. Hashimoto.
        1.0-m f/3.0 reflector + CCD.
    595 Farra d'Isonzo.  Observer E. Pettarin.  0.40-m f/4.5 reflector + CCD.
    854 Sabino Canyon Observatory, Tucson.  Observer J. E. McGaha.  0.36-m f/10.0
        Schmidt-Cassegrain + CCD.
    926 Tenagra II Observatory.  Observers M. Schwartz, P. R. Holvorcem.  0.41-m
        f/3.75 astrograph + CCD.
    B86 Sternwarte Hagen.  Observers T. Roespel, A. Twer, M. Klein.  0.50-m f/3.0
        Deltagraph + CCD.
    C43 Hoyerswerda.  Observer P. Lindner.  0.30-m f/6.3 Schmidt-Cassegrain + CCD.
    G48 Doc Greiner Research Obs., Rancho Hildalgo.  Observer M. Mills.  0.40-m
        f/10 Schmidt-Cassegrain + CCD.
    H21 Astronomical Research Observatory, Westfield.  Observer R. Holmes.
        Measurers L. Buzzi, H. Devore, S. Foglia, T. Vorobjov.  0.61-m f/4.0
        astrograph + CCD.
    H36 Sandlot Observatory, Scranton.  Observer G. Hug.  0.56-m reflector + CCD.
    I93 St Pardon de Conques.  Observer F. Losse.  0.40-m f/3.7 reflector + CCD.
    J95 Great Shefford.  Observer P. Birtwhistle.  0.40-m f/6.0 Schmidt-Cassegrain
        + CCD.
    
    Orbital elements:
    2012 VJ82                                                Earth MOID = 0.0717 AU
    Epoch 2012 Sept. 30.0 TT = JDT 2456200.5                MPC
    M 258.42905              (2000.0)            P               Q
    n   0.62108655     Peri.  271.89939     -0.94598374     -0.18590919
    a   1.3605086      Node   257.45765     +0.27011424     -0.90503711
    e   0.3911152      Incl.   15.78992     -0.17931272     -0.38255144
    P   1.59           H   19.6           G   0.15           U   8
    Residuals in seconds of arc
    121114 926  0.5-  0.1-    121114 B86  0.1+  0.1-    121115 H21  0.1+  0.0
    121114 926  0.0   0.3+    121114 B86  0.1+  0.2-    121115 300  0.1+  0.1-
    121114 926  0.2-  0.4-    121114 B86  0.1+  0.1+    121115 300  0.2+  0.2-
    121114 G48  0.2+  0.1+    121114 B86  0.1-  0.1+    121115 300  0.1-  0.4-
    121114 G48  0.3+  0.1+    121114 B86  0.1+  0.2+    121115 300  0.2+  0.0
    121114 G48  0.5+  0.3-    121114 B86  0.1-  0.0     121116 H21  0.2+  0.3+
    121114 854  0.5+  1.0+    121114 B86  0.0   0.2-    121116 H21  0.2+  0.3+
    121114 854  0.4-  0.0     121114 C43  0.1-  0.1-    121116 H21  0.1+  0.2+
    121114 854  0.3-  0.5+    121114 C43  0.6+  0.0     121116 H36  0.0   0.1+
    121114 113  0.2-  0.3+    121114 I93  0.9-  0.2-    121116 H36  0.0   0.1+
    121114 113  0.3+  0.6-    121114 J95  0.2+  0.1-    121116 H36  0.0   0.6+
    121114 113  0.0   0.3-    121114 J95  0.2-  0.1-    121116 113  0.4+  0.9-
    121114 113  0.1+  0.5-    121114 J95  0.2+  0.0     121116 113  0.4-  0.1-
    121114 113  0.5-  0.4+    121115 I93  0.6-  0.2+    121117 595  0.3+  0.1-
    121114 B86  0.1+  0.1-    121115 I93  0.4-  0.4+    121117 595  0.1-  0.3+
    121114 B86  0.0   0.2+    121115 H21  0.0   0.2-    121117 595  0.7-  0.4+
    
    Ephemeris:
    2012 VJ82                a,e,i = 1.36, 0.39, 16                  q = 0.8284
    Date    TT    R. A. (2000) Decl.     Delta      r     Elong.  Phase     V
    2012 10 18    03 37 25.7 +43 40 00   0.6718  1.5536   136.4    26.2    20.9
    ...
    2012 11 02    03 16 44.7 +42 57 47   0.5345  1.4795   150.0    19.6    20.1
    ...
    2012 11 10    02 58 46.6 +41 10 17   0.4750  1.4372   156.0    16.3    19.6
    ...
    2012 11 16    02 43 16.3 +38 55 30   0.4380  1.4043   157.8    15.4    19.4
    2012 11 17    02 40 36.8 +38 28 06   0.4325  1.3987   157.8    15.5    19.4
    2012 11 18    02 37 57.1 +37 59 17   0.4273  1.3931   157.6    15.7    19.3
    ...
    2012 11 24    02 22 15.4 +34 37 19   0.3998  1.3589   154.4    18.3    19.2
    ...
    2012 12 02    02 03 38.0 +29 00 39   0.3744  1.3119   145.6    25.1    19.2
    ...
    2012 12 17    01 41 39.0 +16 50 16   0.3566  1.2205   124.2    41.8    19.4
    
    A. U. Tomatic                (C) Copyright 2012 MPC           M.P.E.C. 2012-W08
    

    Read MPEC 2012-W07 Read MPEC 2012-W09


    MPEC number:

    Enter an MPEC number in one of the following forms:

    • 1997-B01 (the full form)
    • J97B01 (the packed version of the full form)
    • B01 (the abbreviated form)